Theta_e
320 322 324 326 331 333 336 338 340 348 349 347 351 354 354 353 355 356 357 353 352 351 348 348 345 346 341 339 338 336 334 332 327 334 338 336 337 336 340 342 340 341 334
318 320 322 326 329 331 334 339 340 343 345 346 349 351 350 351 355 355 353 351 348 346 345 344 343 342 343 341 337 338 335 336 331 331 333 331 332 335 335 336 340 341 340
317 319 320 324 326 329 333 339 340 341 343 345 348 349 348 350 353 354 352 349 348 346 344 344 342 341 339 338 338 336 335 334 334 334 328 330 332 331 331 332 330 334 336
317 317 319 323 326 328 332 339 340 340 341 346 349 348 348 350 352 352 350 348 347 346 346 344 342 339 339 339 337 337 335 333 333 333 331 328 328 329 331 328 326 329 329
315 316 319 322 325 327 329 340 340 342 343 348 348 348 349 350 349 351 348 347 347 346 345 342 341 336 330 333 335 337 336 332 329 331 331 325 326 325 326 329 326 324 328
314 314 318 320 322 325 330 341 339 341 346 348 350 346 349 347 316 319 340 347 346 344 340 340 340 329 327 318 317 321 329 334 333 331 329 329 328 326 329 329 324 322 320
313 315 317 318 319 322 332 339 338 346 353 353 352 350 351 349 312 313 318 346 343 342 340 338 337 335 332 335 314 312 316 314 318 334 332 331 330 332 328 329 329 324 325
313 314 314 314 317 321 336 337 344 349 353 352 352 352 351 340 309 308 313 345 342 341 339 338 338 338 337 336 335 334 334 333 332 333 337 336 334 336 335 330 332 331 325
309 310 313 316 317 325 336 339 346 349 351 350 349 349 347 331 305 308 323 339 338 338 338 339 338 338 310 308 334 333 332 332 310 306 306 306 306 313 324 332 328 327 321
308 311 313 313 320 331 336 341 344 347 345 346 344 346 330 335 303 306 322 334 335 334 337 338 309 328 303 302 334 333 331 333 331 330 331 321 319 320 310 332 332 324 321
310 311 312 316 330 335 336 338 339 339 339 339 339 342 341 333 319 304 306 334 332 330 332 333 332 301 300 300 302 335 330 332 321 332 331 332 332 331 330 331 335 328 320
312 313 318 329 333 335 335 336 336 336 335 335 337 338 336 333 312 302 305 310 319 332 332 333 325 298 297 299 310 300 304 315 331 329 327 325 326 326 327 329 331 325 327
314 320 323 330 331 334 333 332 332 334 334 333 332 331 330 327 324 301 300 302 307 335 338 313 298 295 296 304 298 300 302 329 326 325 323 324 326 327 327 327 328 327 327
316 323 325 327 328 331 332 332 332 336 334 331 328 328 328 328 329 331 329 324 309 320 309 318 313 311 303 314 313 314 329 327 327 326 326 327 327 324 323 324 321 322 323
316 323 325 325 326 326 326 331 333 335 330 329 330 330 329 328 329 321 324 332 333 322 322 322 326 326 325 324 324 325 327 327 326 325 325 325 323 322 322 323 323 322 322
316 322 321 321 324 328 328 319 296 302 300 302 309 323 329 309 300 301 297 299 301 302 326 326 325 323 322 321 321 322 326 321 327 326 323 325 321 322 320 322 323 323 323
315 321 321 324 329 329 329 326 319 309 297 294 296 302 305 301 298 297 296 296 297 303 325 325 325 324 322 322 322 321 322 325 327 325 323 323 322 322 318 319 319 320 322
319 306 323 330 331 329 327 327 326 325 319 313 297 299 295 295 294 295 297 303 319 319 327 325 324 326 325 323 323 322 321 318 320 325 324 323 322 321 320 320 320 321 320
318 324 325 331 331 326 329 328 328 325 316 307 309 302 296 293 294 296 298 324 321 320 322 324 326 325 325 325 324 324 324 321 319 324 324 323 323 323 323 322 320 303 307
323 311 318 330 330 329 328 326 322 320 321 321 320 312 310 311 319 323 322 323 324 325 326 325 325 326 324 323 324 321 321 319 317 319 323 322 321 321 318 318 318 317 317
325 327 309 329 329 328 325 326 326 324 324 322 320 312 300 322 323 324 323 323 323 323 322 321 322 324 322 322 322 321 319 322 319 318 320 321 320 322 318 318 319 321 321
330 329 329 329 330 328 328 328 325 323 320 316 315 311 294 322 319 314 312 306 305 308 315 312 310 308 310 312 320 320 318 318 318 319 322 323 323 322 319 317 317 318 318
329 329 330 329 329 317 325 325 322 320 317 317 318 318 317 314 312 306 302 299 299 299 300 300 302 301 302 304 306 310 321 321 323 325 324 322 324 324 324 323 321 318 319
328 328 327 327 327 325 323 321 320 310 316 316 317 314 310 306 302 298 296 296 296 296 296 296 295 295 299 300 300 303 307 311 321 320 322 327 323 316 322 322 322 320 319
329 329 328 326 324 320 318 317 315 314 311 308 309 306 302 299 297 296 294 294 294 293 292 293 293 292 292 293 292 296 289 288 303 297 320 319 313 311 311 310 307 306 306
328 327 322 322 320 317 313 310 308 307 305 304 301 299 297 295 294 292 292 291 292 291 290 291 291 291 291 291 289 287 287 288 294 291 304 305 304 303 303 302 301 302 302
Wind_Speed
16 17 16 16 16 16 17 17 17 17 16 18 16 18 18 17 18 17 14 15 14 13 10 11 11 8 7 7 7 6 6 5 7 3 3 3 2 2 3 3 5 6 7
18 18 18 17 16 17 18 19 19 18 17 18 17 18 19 18 18 17 16 14 15 15 15 13 11 8 9 7 7 6 6 4 7 5 3 4 2 3 4 4 3 4 4
19 18 18 18 17 19 19 20 19 19 18 19 19 20 19 19 19 17 16 15 15 15 14 13 11 10 10 8 8 7 6 6 7 3 5 4 2 3 3 5 3 4 3
20 18 19 19 19 19 18 21 19 19 20 20 20 20 19 19 18 17 16 16 15 14 13 12 11 11 11 10 9 7 5 6 7 3 5 5 3 2 4 5 4 0 3
20 20 19 19 20 20 20 21 19 19 19 19 20 20 19 17 15 18 17 16 16 14 12 11 10 11 5 7 7 8 7 9 5 6 5 5 4 4 6 4 5 3 3
20 21 20 18 20 20 19 20 19 20 20 20 20 20 19 14 17 14 17 16 15 14 12 11 11 8 7 4 1 6 3 8 7 7 7 7 8 5 5 6 6 5 3
21 20 20 19 21 18 21 19 20 19 18 18 18 19 19 15 20 17 14 15 14 13 13 12 11 10 10 10 5 1 5 4 5 7 7 5 6 9 7 7 8 5 3
21 19 20 20 19 17 22 20 18 17 18 17 17 18 17 13 20 17 14 15 11 11 13 13 12 12 11 11 11 11 10 9 8 6 6 4 5 7 9 7 7 7 5
20 21 23 20 21 18 21 19 17 16 16 16 17 19 17 16 18 18 13 14 12 13 12 12 11 11 12 6 10 11 10 9 6 4 8 5 5 9 7 7 7 6 6
20 21 23 22 19 18 15 15 15 15 16 15 14 16 17 21 14 17 12 8 12 10 10 10 9 5 12 9 11 10 10 9 8 7 6 5 6 8 11 8 5 7 5
20 23 25 24 20 14 11 10 13 14 14 14 14 14 20 19 14 14 11 12 11 9 10 9 8 11 10 8 7 8 5 8 4 6 5 6 7 7 7 6 7 4 6
19 23 27 11 10 13 15 13 14 15 15 15 18 15 13 14 13 8 9 4 11 11 9 8 10 10 8 8 6 10 9 8 7 7 7 6 6 5 6 4 7 3 2
18 14 11 11 8 12 14 13 12 14 14 16 14 13 12 10 9 9 5 9 8 5 5 11 16 11 9 7 7 10 10 6 5 6 6 5 5 6 6 5 5 6 3
15 10 5 7 10 11 10 11 11 12 13 13 12 11 11 11 11 10 8 9 13 12 13 10 8 9 4 11 8 7 5 6 7 3 7 6 6 6 4 5 5 4 6
12 9 3 6 9 11 9 10 14 12 13 14 11 13 13 13 11 11 11 11 10 11 12 9 8 7 7 6 6 6 6 7 7 4 7 7 5 5 5 6 5 6 6
9 4 6 7 8 10 12 13 24 16 16 16 12 11 8 16 17 14 12 15 19 15 9 8 8 7 7 7 6 5 5 5 4 6 3 6 7 6 6 5 5 6 6
7 2 6 9 11 14 14 13 14 16 26 24 16 17 14 17 16 15 15 15 13 7 7 8 8 8 6 7 6 5 5 6 6 5 7 7 7 6 7 5 5 5 6
5 1 5 9 12 13 13 13 13 15 13 8 16 10 15 16 14 17 17 13 6 3 5 7 5 5 6 7 7 6 6 3 2 5 5 6 6 7 7 7 8 7 6
5 5 4 9 10 14 13 13 13 14 13 9 9 9 10 14 15 14 8 7 7 6 6 7 7 6 6 6 6 5 7 6 3 4 5 5 5 6 6 5 6 5 6
10 12 10 8 12 13 12 13 11 11 13 12 11 10 8 10 9 9 5 4 4 4 4 5 4 4 4 4 6 5 5 6 4 3 4 4 4 4 4 5 4 5 6
11 11 10 12 13 12 12 13 14 13 13 11 12 8 7 9 9 8 6 6 5 4 5 4 4 5 3 3 5 6 5 5 5 4 4 5 5 4 5 4 3 4 5
14 14 14 15 14 15 13 14 13 13 13 13 10 7 9 8 8 9 8 7 7 6 8 7 6 5 5 4 2 4 4 5 4 4 6 6 6 7 7 5 5 5 5
14 14 13 13 14 15 12 13 13 13 11 12 11 8 9 9 10 9 9 7 7 7 8 7 6 6 5 5 5 5 3 4 3 5 4 6 6 4 3 4 6 6 6
12 16 15 14 13 14 13 13 13 12 12 10 10 11 11 10 10 11 9 7 8 8 8 8 8 10 7 7 6 6 5 4 3 2 1 3 2 3 3 4 3 1 1
14 14 15 14 15 14 14 13 13 13 12 11 12 11 11 11 11 11 9 7 9 10 11 9 8 11 13 14 12 11 8 7 6 4 0 6 10 10 8 8 7 7 8
13 14 13 12 13 12 12 12 13 12 12 12 13 11 11 11 11 11 9 10 10 11 11 10 13 18 18 14 14 12 11 11 10 9 8 8 8 8 8 10 12 8 9
Wind_Direction
291 287 284 278 279 279 271 265 259 247 234 224 211 200 194 194 188 194 177 175 186 184 188 188 192 188 206 210 220 227 225 234 252 175 173 122 188 254 178 188 186 191 152
288 282 282 281 277 277 270 264 258 246 231 222 210 199 187 189 186 186 179 176 185 180 183 188 190 184 211 223 216 222 220 199 260 182 123 186 175 164 209 161 204 197 181
285 280 282 280 275 274 268 265 256 244 230 219 208 199 187 184 184 182 178 177 181 180 183 186 187 190 197 206 224 185 203 220 216 182 160 191 114 157 124 111 75 68 64
289 285 278 278 274 272 269 263 249 236 225 212 204 198 186 181 180 175 174 177 178 184 180 186 187 192 203 202 205 205 212 225 224 195 200 165 147 161 174 156 135 118 126
285 284 274 276 277 274 267 256 237 229 220 206 196 194 180 177 177 173 175 172 178 176 172 177 182 198 181 195 205 202 193 222 203 202 168 179 157 168 187 179 149 129 98
282 281 277 280 280 271 266 246 227 220 209 199 191 183 174 179 145 158 165 168 174 169 170 177 160 144 149 162 65 9 249 219 213 214 194 195 174 177 183 178 154 157 155
281 281 276 273 280 265 264 228 215 209 196 192 181 176 171 162 136 139 149 165 169 171 172 174 176 178 179 183 142 161 238 305 24 220 216 207 174 187 170 185 181 199 145
281 283 282 283 273 262 252 212 205 194 186 181 175 169 167 138 139 148 168 158 164 165 173 182 194 164 195 186 177 196 203 198 212 213 223 208 201 165 188 182 194 142 97
280 277 280 284 268 257 226 200 190 180 176 174 169 160 152 146 141 145 160 155 164 173 178 187 187 186 142 188 198 190 190 165 110 23 47 18 95 130 159 166 167 178 151
282 278 288 283 256 229 204 178 177 170 166 161 155 155 141 148 159 161 159 153 166 166 163 155 54 175 145 180 215 188 190 177 186 175 184 159 167 135 153 196 190 192 148
288 293 281 271 220 173 163 158 158 148 145 138 137 137 145 148 159 160 190 167 165 174 173 167 149 124 147 186 245 196 198 142 149 188 167 170 169 156 183 197 207 182 175
268 268 258 175 147 144 148 147 144 144 135 134 132 130 136 140 148 176 193 230 158 183 171 171 117 132 144 179 218 108 119 153 167 169 165 165 167 168 174 195 168 119 354
281 317 1 116 126 130 127 126 128 135 134 132 134 129 132 136 132 104 127 122 85 177 115 92 112 122 134 132 122 129 170 160 151 166 163 164 179 161 154 130 139 147 164
312 343 348 98 110 115 126 132 136 137 128 131 128 135 139 148 150 155 137 120 112 104 111 114 120 115 77 102 124 168 169 163 162 193 162 161 145 146 149 150 159 174 203
323 310 122 110 113 114 93 130 137 138 135 137 143 149 154 154 154 151 161 164 155 128 126 138 152 155 152 150 153 175 172 159 170 176 155 159 158 156 153 167 176 182 204
303 307 106 104 124 125 120 88 49 73 66 86 109 150 120 110 108 105 92 103 115 150 156 156 161 169 170 157 165 171 180 186 186 157 162 168 167 174 165 179 185 203 229
302 143 134 143 146 134 123 120 109 69 63 50 55 88 105 125 119 119 110 113 133 155 157 173 168 165 165 166 169 168 182 189 181 181 173 183 178 179 163 177 187 204 235
254 201 162 156 133 132 129 133 122 119 110 78 34 69 103 110 113 119 124 123 140 174 161 158 175 160 158 166 174 175 170 173 262 184 181 179 182 181 192 199 193 203 216
226 192 184 144 148 127 125 119 120 119 109 109 116 77 71 91 112 124 144 145 151 170 174 190 185 164 166 173 170 175 169 171 185 211 199 183 197 195 190 203 191 201 199
195 206 179 142 134 121 120 121 114 117 130 134 125 118 125 123 136 146 135 133 136 142 126 125 121 120 143 166 162 161 155 159 173 253 193 168 197 187 176 193 196 200 206
200 170 153 139 125 128 129 135 131 134 134 128 123 140 145 141 124 117 121 84 68 95 127 141 145 120 129 149 171 166 167 175 170 181 208 184 185 204 173 191 210 251 257
161 154 157 145 135 135 141 127 130 128 124 123 117 114 122 118 97 90 79 63 51 42 46 68 67 53 40 28 95 139 147 160 167 193 203 205 188 185 185 186 189 203 216
151 149 132 141 133 120 114 116 122 119 118 119 126 129 97 95 85 81 79 69 61 57 52 54 57 53 32 25 31 21 146 163 194 201 173 223 214 162 188 199 193 188 203
150 143 124 124 120 107 113 117 113 108 109 108 110 102 95 90 89 84 76 67 68 67 57 57 52 51 38 41 22 22 6 13 44 32 343 275 130 167 220 212 176 246 3
117 125 120 113 115 115 116 109 105 103 101 94 93 92 93 93 90 84 73 69 72 66 60 54 54 53 50 51 47 43 25 18 36 354 255 84 77 60 59 68 70 63 58
102 93 97 105 112 108 104 105 100 99 98 97 94 89 90 91 90 87 80 76 75 71 66 58 60 57 54 43 37 30 30 38 46 44 65 66 76 74 75 77 72 70 71